一网星座-0681星 (ONEWEB-0681)

导读 | 星芒AI

ONEWEB-0681 是 OneWeb 卫星通信公司发射的低轨通信卫星之一,属于其全球宽带互联网星座计划。该卫星运行在约 1200 公里的近地轨道,旨在为全球用户提供高速、低延迟的互联网服务。作为 OneWeb 星座的一部分,它与其他卫星协同工作,支持偏远和未覆盖地区的通信需求。该卫星采用模块化设计,具备高容量和高可靠性,是推动全球数字连接的重要组成部分。

基本信息
目录编号:
56717
目录名称:
ONEWEB-0681
国际标识:
2023-068H
轨道中心:
EARTH
卫星名称:
一网星座-0681星
卫星全名:
一网星座-0681星 (ONEWEB-0681)
卫星状态:
在轨 (已飞行894 天)
发射日期:
2023-05-20 UTC
国别 :
英国 (GB)
星等 :
--
轨道信息
数据来源 国际轨道数据 AOE轨道数据
星历时间 2025-10-30T07:01:01+0800
6小时前
查看轨道信息
2025-10-29T14:00:00+0800
23小时前
查看轨道信息
半长轴 7555.89km 7555.887km
偏心率 0.0000839 0.0000783
轨道倾角 87.917° 87.917°
近地点辐角 99.292° 95.191°
升交点赤经 289.909° 290.051°
平近点角 260.831° 132.859°
近地点 1177.121km 1177.16km
远地点 1178.389km 1178.344km
周期 108.940分钟 108.940分钟
每日圈数 13.218261 13.218271
详细信息
平衡模式:
三轴稳定
覆盖范围:
全球
运营商:
一网卫星公司
运营商所在国:
英国
制造商(研发单位):
一网卫星公司
制造商所在国:
英国
使用方式:
暂无
卫星简介
OneWeb卫星网络由648颗重约125公斤的微型卫星组成,运行在1200公里的轨道上。 每颗卫星都能够提供至少每秒8千兆位的吞吐量,以使用其高吞吐量的Ku频段有效载荷为家庭和移动平台提供互联网接入。该卫星仍在工作。
2D轨道图
3D轨道图
轨道高度分析图
轨道倾角分析图
轨道综合分析图
查看轨道综合分析图